EW1959 Weather Reports


Display with metric or nautical units.
time (UTC)temp
F
wind
direction
speed
MPH
gust
MPH
rain 1hr
in
rain 24hr
in
rain mn
in
humidity
%
barometer
mb
20190624104859 74 258 0.0 0.0 0.00 0.00 0.00 1 1016.1
20190624104358 74 258 0.0 0.0 0.00 0.00 0.00 1 1016.0
20190624103858 74 258 0.0 0.0 0.00 0.00 0.00 1 1016.1
20190624103355 75 258 0.0 0.0 0.00 0.00 0.00 1 1016.0
20190624102857 75 258 0.0 0.0 0.00 0.00 0.00 1 1015.9
20190624102356 75 258 0.0 0.0 0.00 0.00 0.00 1 1015.9
20190624101852 75 258 0.0 1.0 0.00 0.00 0.00 1 1015.8
20190624101353 75 259 1.0 2.0 0.00 0.00 0.00 1 1015.9
20190624100852 76 259 1.0 2.0 0.00 0.00 0.00 1 1015.8
20190624100354 76 252 1.0 2.0 0.00 0.00 0.00 1 1015.7
20190624095853 76 252 1.0 1.0 0.00 0.00 0.00 1 1015.7
20190624095353 76 262 1.0 2.0 0.00 0.00 0.00 1 1015.8
20190624094851 76 270 1.0 2.0 0.00 0.00 0.00 1 1015.7
20190624094350 76 269 1.0 2.0 0.00 0.00 0.00 1 1015.7
20190624093850 76 269 1.0 2.0 0.00 0.00 0.00 1 1015.6
20190624093348 76 276 1.0 2.0 0.00 0.00 0.00 1 1015.6
20190624092848 76 265 1.0 1.0 0.00 0.00 0.00 1 1015.5
20190624092350 76 255 1.0 2.0 0.00 0.00 0.00 1 1015.6
20190624091848 76 257 1.0 3.0 0.00 0.00 0.00 1 1015.5
20190624091349 76 243 1.0 3.0 0.00 0.00 0.00 1 1015.4
20190624090847 76 265 1.0 2.0 0.00 0.00 0.00 1 1015.4
20190624090347 76 251 2.0 4.0 0.00 0.00 0.00 1 1015.4
20190624085847 76 252 2.0 4.0 0.00 0.00 0.00 1 1015.4
20190624085346 76 250 3.0 4.0 0.00 0.00 0.00 1 1015.4
20190624084846 76 243 3.0 4.0 0.00 0.00 0.00 1 1015.4
20190624084344 76 248 2.0 4.0 0.00 0.00 0.00 1 1015.4
20190624083844 76 247 2.0 3.0 0.00 0.00 0.00 1 1015.4
20190624083350 76 250 2.0 3.0 0.00 0.00 0.00 1 1015.4
20190624082844 76 249 1.0 2.0 0.00 0.00 0.00 1 1015.4
20190624082344 76 243 0.0 2.0 0.00 0.00 0.00 1 1015.3
20190624081845 76 248 0.0 1.0 0.00 0.00 0.00 1 1015.4
20190624081342 75 246 1.0 1.0 0.00 0.00 0.00 1 1015.4
20190624080843 75 257 0.0 1.0 0.00 0.00 0.00 1 1015.4
20190624080342 75 252 0.0 1.0 0.00 0.00 0.00 1 1015.5
20190624075842 76 254 0.0 0.0 0.00 0.00 0.00 1 1015.5
20190624075342 76 253 0.0 0.0 0.00 0.00 0.00 1 1015.5
20190624074842 76 253 0.0 0.0 0.00 0.00 0.00 1 1015.4
20190624074343 76 253 0.0 0.0 0.00 0.00 0.00 1 1015.4
20190624073842 76 253 0.0 1.0 0.00 0.00 0.00 1 1015.4
20190624073343 76 253 0.0 1.0 0.00 0.00 0.00 1 1015.4
20190624072842 76 252 0.0 0.0 0.00 0.00 0.00 1 1015.4
20190624072340 75 258 0.0 0.0 0.00 0.00 0.00 1 1015.4
20190624071842 76 257 0.0 0.0 0.00 0.00 0.00 1 1015.4
20190624071340 76 257 0.0 0.0 0.00 0.00 0.00 1 1015.4
20190624070840 75 257 0.0 0.0 0.00 0.00 0.00 1 1015.4
20190624070345 76 257 0.0 0.0 0.00 0.00 0.00 1 1015.4
20190624065840 76 257 0.0 0.0 0.00 0.00 0.00 1 1015.5
20190624065340 76 257 0.0 1.0 0.00 0.00 0.00 1 1015.6
20190624064840 76 257 0.0 1.0 0.00 0.00 0.00 1 1015.6
20190624064340 76 252 0.0 1.0 0.00 0.00 0.00 1 1015.7
20190624063840 76 251 0.0 1.0 0.00 0.00 0.00 1 1015.7
20190624063339 76 249 0.0 0.0 0.00 0.00 0.00 1 1015.7
20190624062838 76 249 0.0 0.0 0.00 0.00 0.00 1 1015.8
20190624062339 76 249 0.0 0.0 0.00 0.00 0.00 1 1015.8
20190624061839 76 249 0.0 0.0 0.00 0.00 0.00 1 1015.8
20190624061338 77 249 0.0 0.0 0.00 0.00 0.00 1 1015.8
20190624060838 77 249 0.0 0.0 0.00 0.00 0.00 1 1015.8
20190624060340 77 245 0.0 0.0 0.00 0.00 0.00 1 1015.8
20190624055841 77 197 0.0 0.0 0.00 0.00 0.00 1 1015.9
20190624055340 78 197 0.0 0.0 0.00 0.00 0.00 1 1016.0
20190624054838 78 134 0.0 0.0 0.00 0.00 0.00 1 1016.0
20190624054337 78 113 0.0 0.0 0.00 0.00 0.00 1 1016.2
20190624053838 79 115 0.0 2.0 0.00 0.00 0.00 1 1016.2
20190624053338 79 98 1.0 3.0 0.00 0.00 0.00 1 1016.2
20190624052837 79 86 0.0 3.0 0.00 0.00 0.00 1 1016.3
20190624052336 79 118 1.0 3.0 0.00 0.00 0.00 1 1016.3
20190624051837 79 142 2.0 5.0 0.00 0.00 0.00 1 1016.4
20190624051337 79 79 2.0 5.0 0.00 0.00 0.00 1 1016.4
20190624050836 79 94 1.0 4.0 0.00 0.00 0.00 1 1016.4
20190624050336 79 73 1.0 3.0 0.00 0.00 0.00 1 1016.6
20190624045836 80 100 1.0 4.0 0.00 0.00 0.00 1 1016.7
20190624045334 80 75 2.0 5.0 0.00 0.00 0.00 1 1016.7
20190624044835 80 91 1.0 5.0 0.00 0.00 0.00 1 1016.7
20190624044333 80 87 1.0 3.0 0.00 0.00 0.00 1 1016.7
20190624043834 80 73 1.0 3.0 0.00 0.00 0.00 1 1016.6
20190624043332 80 94 1.0 3.0 0.00 0.00 0.00 1 1016.7
20190624042833 80 84 0.0 2.0 0.00 0.00 0.00 1 1016.8
20190624042332 80 89 0.0 1.0 0.00 0.00 0.00 1 1016.8
20190624041832 80 98 0.0 2.0 0.00 0.00 0.00 1 1016.9
20190624041333 80 92 0.0 2.0 0.00 0.00 0.00 1 1016.9
20190624040833 80 88 0.0 1.0 0.00 0.00 0.00 1 1017.0
20190624040332 80 88 0.0 1.0 0.00 0.00 0.00 1 1017.1
20190624035831 80 88 0.0 0.0 0.00 0.00 0.00 1 1017.1
20190624035331 81 88 0.0 0.0 0.00 0.00 0.00 1 1017.1
20190624034829 81 88 0.0 1.0 0.00 0.00 0.00 1 1017.1
20190624034330 82 88 0.0 1.0 0.00 0.00 0.00 1 1017.2
20190624033829 82 51 0.0 0.0 0.00 0.00 0.00 1 1017.1
20190624033331 82 51 0.0 2.0 0.00 0.00 0.00 1 1017.1
20190624032830 82 51 0.0 2.0 0.00 0.00 0.00 1 1017.1
20190624032331 83 293 0.0 1.0 0.00 0.00 0.00 1 1017.1
20190624031845 83 8 0.0 1.0 0.00 0.00 0.00 1 1017.2
20190624031328 83 10 0.0 0.0 0.00 0.00 0.00 1 1017.2
20190624030828 83 10 0.0 1.0 0.00 0.00 0.00 1 1017.1
20190624030327 83 10 0.0 1.0 0.00 0.00 0.00 1 1017.2
20190624025828 83 323 1.0 5.0 0.00 0.00 0.00 1 1017.2
20190624025328 83 29 1.0 5.0 0.00 0.00 0.00 1 1017.3
20190624024829 83 252 0.0 0.0 0.00 0.00 0.00 8 1017.2
20190624024328 84 248 0.0 0.0 0.00 0.00 0.00 12 1017.1
20190624023831 84 248 0.0 0.0 0.00 0.00 0.00 16 1017.0
20190624023328 84 248 0.0 1.0 0.00 0.00 0.00 21 1017.0
20190624022829 84 248 1.0 2.0 0.00 0.00 0.00 15 1016.9
20190624022325 84 258 0.0 2.0 0.00 0.00 0.00 2 1016.8
20190624021825 84 236 0.0 1.0 0.00 0.00 0.00 1 1016.7
20190624021327 84 235 0.0 0.0 0.00 0.00 0.00 5 1016.6
20190624020826 84 235 0.0 2.0 0.00 0.00 0.00 13 1016.4
20190624020326 84 246 0.0 2.0 0.00 0.00 0.00 7 1016.2
20190624015827 84 247 0.0 2.0 0.00 0.00 0.00 3 1016.0
20190624015327 84 267 0.0 2.0 0.00 0.00 0.00 1 1016.0
20190624014826 84 233 0.0 1.0 0.00 0.00 0.00 4 1015.9
20190624014325 85 209 0.0 0.0 0.00 0.00 0.00 8 1016.1
20190624013827 85 209 0.0 0.0 0.00 0.00 0.00 1 1016.1
20190624013325 85 209 0.0 0.0 0.00 0.00 0.00 3 1016.1
20190624012826 85 217 0.0 0.0 0.00 0.00 0.00 14 1016.0
20190624012325 85 217 0.0 1.0 0.00 0.00 0.00 18 1015.9
20190624011824 85 217 1.0 2.0 0.00 0.00 0.00 19 1015.8
20190624011325 86 167 0.0 2.0 0.00 0.00 0.00 22 1015.8
20190624010825 86 281 0.0 0.0 0.00 0.00 0.00 26 1015.7
20190624010324 86 191 0.0 2.0 0.00 0.00 0.00 31 1015.7
20190624005823 86 191 0.0 2.0 0.00 0.00 0.00 33 1015.7
20190624005324 87 246 0.0 1.0 0.00 0.00 0.00 33 1015.7
20190624004823 87 189 0.0 3.0 0.00 0.00 0.00 37 1015.8
20190624004324 87 163 1.0 3.0 0.00 0.00 0.00 41 1015.8
20190624003825 87 237 1.0 3.0 0.00 0.00 0.00 41 1015.8
20190624003325 87 250 0.0 3.0 0.00 0.00 0.00 46 1015.8
20190624002825 88 198 0.0 3.0 0.00 0.00 0.00 52 1015.8
20190624002324 88 195 0.0 1.0 0.00 0.00 0.00 53 1015.7
20190624001824 88 153 0.0 2.0 0.00 0.00 0.00 56 1015.6
20190624001323 89 214 1.0 2.0 0.00 0.00 0.00 59 1015.6
20190624000825 89 180 1.0 4.0 0.00 0.00 0.00 60 1015.5
20190624000324 89 136 2.0 4.0 0.00 0.00 0.00 61 1015.5
20190623235824 90 155 2.0 6.0 0.00 0.00 0.00 62 1015.4
20190623235324 91 143 2.0 6.0 0.00 0.00 0.00 62 1015.4
20190623234825 91 93 2.0 6.0 0.00 0.00 0.00 62 1015.3
20190623234324 91 158 3.0 6.0 0.00 0.00 0.00 62 1015.4
20190623233821 91 204 2.0 6.0 0.00 0.00 0.00 62 1015.3
20190623233319 92 169 2.0 6.0 0.00 0.00 0.00 61 1015.4
20190623232819 92 89 1.0 3.0 0.00 0.00 0.00 60 1015.3
20190623232321 92 113 1.0 4.0 0.00 0.00 0.00 60 1015.4
20190623231821 92 110 1.0 4.0 0.00 0.00 0.00 59 1015.4
20190623231319 93 95 1.0 3.0 0.00 0.00 0.00 59 1015.4
20190623230818 94 45 1.0 3.0 0.00 0.00 0.00 57 1015.4
20190623230317 95 312 2.0 5.0 0.00 0.00 0.00 48 1015.4
20190623225819 94 278 4.0 7.0 0.00 0.00 0.00 48 1015.4
20190623225318 94 282 4.0 7.0 0.00 0.00 0.00 48 1015.4
20190623224818 95 275 3.0 8.0 0.00 0.00 0.00 49 1015.3
20190623224317 95 288 4.0 8.0 0.00 0.00 0.00 48 1015.4
20190623223818 95 287 4.0 6.0 0.00 0.00 0.00 47 1015.5
20190623223316 95 269 4.0 7.0 0.00 0.00 0.00 47 1015.4
20190623222817 95 248 5.0 8.0 0.00 0.00 0.00 46 1015.4
20190623222315 95 233 5.0 8.0 0.00 0.00 0.00 46 1015.4
20190623221816 95 302 5.0 8.0 0.00 0.00 0.00 45 1015.5
20190623221313 95 284 5.0 9.0 0.00 0.00 0.00 44 1015.5
20190623220813 95 262 5.0 9.0 0.00 0.00 0.00 46 1015.5
20190623220314 96 279 4.0 9.0 0.00 0.00 0.00 45 1015.5
20190623215815 96 278 3.0 9.0 0.00 0.00 0.00 45 1015.5
20190623215314 95 277 2.0 6.0 0.00 0.00 0.00 48 1015.5
20190623214815 95 322 2.0 6.0 0.00 0.00 0.00 49 1015.5
20190623214314 95 278 1.0 5.0 0.00 0.00 0.00 50 1015.6
20190623213822 95 101 1.0 5.0 0.00 0.00 0.00 51 1015.7
20190623213313 94 156 3.0 5.0 0.00 0.00 0.00 51 1015.7
20190623212814 94 262 3.0 5.0 0.00 0.00 0.00 52 1015.8
20190623212314 94 243 3.0 6.0 0.00 0.00 0.00 53 1015.7
20190623211814 93 271 3.0 6.0 0.00 0.00 0.00 53 1015.8
20190623211314 93 302 4.0 8.0 0.00 0.00 0.00 53 1015.9
20190623210814 94 329 4.0 8.0 0.00 0.00 0.00 51 1015.9
20190623210312 95 320 3.0 11.0 0.00 0.00 0.00 50 1015.8
20190623205813 95 245 4.0 11.0 0.00 0.00 0.00 50 1015.9
20190623205312 94 257 5.0 11.0 0.00 0.00 0.00 49 1015.9
20190623204810 94 273 6.0 11.0 0.00 0.00 0.00 50 1016.0
20190623204310 95 260 5.0 11.0 0.00 0.00 0.00 50 1015.9
20190623203809 96 306 4.0 8.0 0.00 0.00 0.00 51 1015.7
20190623203310 95 287 5.0 9.0 0.00 0.00 0.00 50 1015.7
20190623202810 95 50 5.0 9.0 0.00 0.00 0.00 51 1015.7
20190623202309 95 273 5.0 9.0 0.00 0.00 0.00 49 1015.7
20190623201810 94 300 3.0 9.0 0.00 0.00 0.00 50 1015.7
20190623201310 94 359 4.0 9.0 0.00 0.00 0.00 51 1015.8
20190623200812 94 267 4.0 9.0 0.00 0.00 0.00 51 1015.8
20190623200311 94 298 4.0 10.0 0.00 0.00 0.00 51 1015.8
20190623195810 94 277 6.0 10.0 0.00 0.00 0.00 51 1015.9
20190623195309 94 297 7.0 11.0 0.00 0.00 0.00 51 1015.9
20190623194811 94 297 5.0 11.0 0.00 0.00 0.00 50 1016.0
20190623194310 94 295 3.0 8.0 0.00 0.00 0.00 51 1016.1
20190623193808 94 252 3.0 7.0 0.00 0.00 0.00 51 1016.3
20190623193308 94 274 4.0 13.0 0.00 0.00 0.00 52 1016.3
20190623192807 94 263 5.0 13.0 0.00 0.00 0.00 51 1016.4
20190623192311 94 6 5.0 11.0 0.00 0.00 0.00 53 1016.4
20190623191810 94 292 5.0 10.0 0.00 0.00 0.00 52 1016.6
20190623191313 94 214 5.0 10.0 0.00 0.00 0.00 52 1016.6
20190623190806 94 257 5.0 10.0 0.00 0.00 0.00 53 1016.6
20190623190308 94 287 4.0 10.0 0.00 0.00 0.00 51 1016.7
20190623185807 94 256 4.0 8.0 0.00 0.00 0.00 50 1016.8
20190623185306 94 327 5.0 10.0 0.00 0.00 0.00 52 1016.8
20190623184806 93 283 6.0 11.0 0.00 0.00 0.00 53 1017.0
20190623184306 93 340 5.0 11.0 0.00 0.00 0.00 54 1017.1
20190623183805 94 294 4.0 9.0 0.00 0.00 0.00 53 1017.1
20190623183305 94 290 4.0 11.0 0.00 0.00 0.00 54 1017.4
20190623182805 93 340 4.0 11.0 0.00 0.00 0.00 57 1017.3
20190623182305 93 284 2.0 7.0 0.00 0.00 0.00 58 1017.5
20190623181806 93 307 3.0 12.0 0.00 0.00 0.00 60 1017.4
20190623181305 92 11 3.0 12.0 0.00 0.00 0.00 60 1017.5
20190623180804 92 352 3.0 7.0 0.00 0.00 0.00 61 1017.6
20190623180306 91 309 4.0 7.0 0.00 0.00 0.00 60 1017.7
20190623175803 93 73 3.0 7.0 0.00 0.00 0.00 58 1017.7
20190623175304 93 267 2.0 6.0 0.00 0.00 0.00 58 1017.9
20190623174803 93 0 2.0 9.0 0.00 0.00 0.00 60 1017.9
20190623174304 92 257 3.0 9.0 0.00 0.00 0.00 59 1017.9
20190623173804 92 317 4.0 9.0 0.00 0.00 0.00 62 1017.9
20190623173302 92 8 5.0 9.0 0.00 0.00 0.00 61 1018.0
20190623172803 92 287 6.0 10.0 0.00 0.00 0.00 59 1018.0
20190623172301 92 292 7.0 11.0 0.00 0.00 0.00 61 1018.1
20190623171802 91 262 7.0 11.0 0.00 0.00 0.00 62 1018.2
20190623171302 92 285 6.0 12.0 0.00 0.00 0.00 61 1018.1
20190623170801 92 266 5.0 12.0 0.00 0.00 0.00 61 1018.1
20190623170300 92 316 3.0 8.0 0.00 0.00 0.00 60 1018.3
20190623165800 92 314 4.0 9.0 0.00 0.00 0.00 61 1018.3
20190623165301 92 263 5.0 9.0 0.00 0.00 0.00 62 1018.3
20190623164801 92 264 4.0 11.0 0.00 0.00 0.00 62 1018.4
20190623164301 91 165 4.0 11.0 0.00 0.00 0.00 63 1018.4
20190623163804 92 311 4.0 9.0 0.00 0.00 0.00 61 1018.6
20190623163301 92 186 5.0 9.0 0.00 0.00 0.00 62 1018.6
20190623162802 92 288 4.0 8.0 0.00 0.00 0.00 63 1018.6
20190623162301 91 267 3.0 8.0 0.00 0.00 0.00 62 1018.6
20190623161801 91 276 4.0 8.0 0.00 0.00 0.00 62 1018.7
20190623161302 90 311 4.0 8.0 0.00 0.00 0.00 62 1018.7
20190623160803 91 316 5.0 10.0 0.00 0.00 0.00 62 1018.7
20190623160301 91 281 5.0 10.0 0.00 0.00 0.00 62 1018.8
20190623155803 91 303 5.0 10.0 0.00 0.00 0.00 62 1018.8
20190623155300 90 271 5.0 9.0 0.00 0.00 0.00 62 1018.8
20190623154800 90 12 6.0 11.0 0.00 0.00 0.00 62 1018.8
20190623154300 89 329 6.0 11.0 0.00 0.00 0.00 60 1018.9
20190623153800 89 326 5.0 9.0 0.00 0.00 0.00 60 1019.0
20190623153259 89 319 6.0 11.0 0.00 0.00 0.00 61 1019.0
20190623152759 89 308 5.0 11.0 0.00 0.00 0.00 61 1019.0
20190623152300 90 285 5.0 11.0 0.00 0.00 0.00 60 1019.0
20190623151759 89 276 6.0 11.0 0.00 0.00 0.00 58 1019.0
20190623151259 89 302 6.0 10.0 0.00 0.00 0.00 59 1019.1
20190623150759 89 281 6.0 11.0 0.00 0.00 0.00 61 1019.0
20190623150301 89 293 6.0 11.0 0.00 0.00 0.00 62 1019.1
20190623145756 89 290 4.0 10.0 0.00 0.00 0.00 62 1019.1
20190623145256 89 333 3.0 8.0 0.00 0.00 0.00 59 1019.1
20190623144757 88 302 4.0 7.0 0.00 0.00 0.00 57 1019.0
20190623144256 88 331 4.0 7.0 0.00 0.00 0.00 58 1019.1
20190623143757 88 295 3.0 7.0 0.00 0.00 0.00 49 1019.1
20190623143257 87 265 4.0 8.0 0.00 0.00 0.00 50 1019.1
20190623142757 88 304 4.0 8.0 0.00 0.00 0.00 50 1019.0
20190623142257 87 290 5.0 8.0 0.00 0.00 0.00 50 1019.1
20190623141756 87 264 5.0 11.0 0.00 0.00 0.00 51 1019.1
20190623141258 87 274 4.0 11.0 0.00 0.00 0.00 52 1019.0
20190623140756 88 257 2.0 8.0 0.00 0.00 0.00 55 1019.0
20190623140258 88 348 1.0 6.0 0.00 0.00 0.00 50 1019.0
20190623135758 88 299 1.0 6.0 0.00 0.00 0.00 48 1018.9
20190623135257 88 226 1.0 4.0 0.00 0.00 0.00 36 1018.9
20190623134801 87 153 2.0 5.0 0.00 0.00 0.00 39 1018.9
20190623134258 86 259 1.0 5.0 0.00 0.00 0.00 41 1018.8
20190623133757 86 210 2.0 5.0 0.00 0.00 0.00 35 1018.8
20190623133257 86 221 3.0 6.0 0.00 0.00 0.00 31 1018.9
20190623132756 86 263 2.0 6.0 0.00 0.00 0.00 31 1018.8
20190623132257 86 220 1.0 5.0 0.00 0.00 0.00 16 1018.9
20190623131758 85 172 2.0 7.0 0.00 0.00 0.00 4 1018.9
20190623131257 84 252 2.0 7.0 0.00 0.00 0.00 1 1018.8
20190623130757 84 206 2.0 6.0 0.00 0.00 0.00 1 1018.8
20190623130256 83 257 3.0 6.0 0.00 0.00 0.00 1 1018.7
20190623125758 82 278 3.0 7.0 0.00 0.00 0.00 1 1018.7
20190623125256 82 241 3.0 7.0 0.00 0.00 0.00 1 1018.7
20190623124756 82 239 4.0 7.0 0.00 0.00 0.00 1 1018.7
20190623124258 81 257 3.0 7.0 0.00 0.00 0.00 1 1018.7
20190623123758 80 227 3.0 5.0 0.00 0.00 0.00 1 1018.6
20190623123258 80 210 2.0 5.0 0.00 0.00 0.00 1 1018.6
20190623122758 79 245 2.0 4.0 0.00 0.00 0.00 1 1018.5
20190623122256 79 229 3.0 6.0 0.00 0.00 0.00 1 1018.5
20190623121757 78 242 3.0 6.0 0.00 0.00 0.00 1 1018.4
20190623121258 78 245 3.0 6.0 0.00 0.00 0.00 1 1018.2
20190623120758 78 274 3.0 5.0 0.00 0.00 0.00 1 1018.2
20190623120256 78 282 3.0 5.0 0.00 0.00 0.00 1 1018.1
20190623115756 77 268 2.0 4.0 0.00 0.00 0.00 1 1018.2
20190623115256 77 255 2.0 4.0 0.00 0.00 0.00 1 1018.2
20190623114758 77 280 2.0 3.0 0.00 0.00 0.00 1 1018.1
20190623114258 77 248 1.0 3.0 0.00 0.00 0.00 1 1017.9
20190623113754 77 237 1.0 3.0 0.00 0.00 0.00 1 1017.8
20190623113254 77 201 1.0 3.0 0.00 0.00 0.00 1 1017.8
20190623112755 77 209 1.0 4.0 0.00 0.00 0.00 1 1017.7
20190623112256 76 243 2.0 4.0 0.00 0.00 0.00 1 1017.6
20190623111754 76 256 2.0 6.0 0.00 0.00 0.00 1 1017.5
20190623111255 76 244 3.0 6.0 0.00 0.00 0.00 1 1017.5
20190623110754 76 250 3.0 6.0 0.00 0.00 0.00 1 1017.4
20190623110254 76 232 2.0 5.0 0.00 0.00 0.00 1 1017.4
20190623105754 76 224 2.0 4.0 0.00 0.00 0.00 1 1017.3
20190623105252 76 240 1.0 3.0 0.00 0.00 0.00 1 1017.0